ECHOSTAR 19 (41893 NORAD) Tracking and Keplerian Element Data

This shows tracking and keplerian element data for the satellite.

Feedback or suggestion? Click here.




ElementValue
Catalog41893
NameECHOSTAR 19
Epoch Orbit2970
Epoch Day34.66437329
Epoch Year2025
RAAN89.8572
Inclination0.0169
Eccentricity0.0001451
Argument of Perigee218.7002
Mean Anonmoly327.5783
Mean Motion1.0027104
Decay Rate-1.34E-06
L11 41893U 16079A 25034.66437329 -.00000134 00000+0 00000+0 0 9999
L22 41893 0.0169 89.8572 0001451 218.7002 327.5783 1.00271040 29701



Live tracking and technical data element details for ECHOSTAR 19 (NORAD 41893). ECHOSTAR 19 can be tracked NOW for your location showing map with azimuth and elevation plus other details from your city location.







IsCatalogInMostPopularTable: catalog: 41893, numindb: 979
Update: records affected: 1



GetName: 41893 ECHOSTAR 19

Hit Count: updated at: Wed, 30 Apr 2025 16:19:05 GMT